| time (UTC) | temp C | wind direction | speed KPH | gust KPH | rain 1hr cm | rain 24hr cm | rain mn cm | humidity % | barometer mb |
| 20260507064512 | 18 | 279 | 3.2 | 12.9 | 0.00 | 0.00 | 0.00 | 76 | 1012.1 |
| 20260507063016 | 17 | 188 | 1.6 | 16.1 | 0.00 | 0.00 | 0.00 | 76 | 1012.1 |
| 20260507061518 | 17 | 194 | 6.4 | 11.3 | 0.00 | 0.00 | 0.00 | 76 | 1012.2 |
| 20260507060026 | 17 | 172 | 3.2 | 8.0 | 0.00 | 0.00 | 0.00 | 78 | 1011.9 |
| 20260507054528 | 16 | 210 | 1.6 | 3.2 | 0.00 | 0.00 | 0.00 | 81 | 1012.1 |
| 20260507053014 | 16 | 192 | 3.2 | 4.8 | 0.00 | 0.00 | 0.00 | 80 | 1011.8 |
| 20260507051518 | 16 | 313 | 0.0 | 3.2 | 0.00 | 0.00 | 0.00 | 83 | 1011.6 |
| 20260507050030 | 15 | 314 | 0.0 | 1.6 | 0.00 | 0.00 | 0.00 | 83 | 1011.5 |
| 20260507044524 | 15 | 315 | 0.0 | 3.2 | 0.00 | 0.00 | 0.00 | 86 | 1011.5 |
| 20260507043029 | 15 | 192 | 0.0 | 3.2 | 0.00 | 0.00 | 0.00 | 86 | 1011.3 |
| 20260507041515 | 14 | 151 | 0.0 | 3.2 | 0.00 | 0.00 | 0.00 | 86 | 1011.1 |
| 20260507040019 | 14 | 152 | 0.0 | 3.2 | 0.00 | 0.00 | 0.00 | 85 | 1011.0 |
| 20260507034531 | 15 | 165 | 0.0 | 3.2 | 0.00 | 0.00 | 0.00 | 85 | 1011.0 |
| 20260507033029 | 15 | 165 | 0.0 | 3.2 | 0.00 | 0.00 | 0.00 | 82 | 1011.0 |
| 20260507031519 | 15 | 137 | 0.0 | 3.2 | 0.00 | 0.00 | 0.00 | 81 | 1011.0 |
| 20260507030021 | 15 | 137 | 0.0 | 3.2 | 0.00 | 0.00 | 0.00 | 78 | 1011.1 |
| 20260507024524 | 15 | 174 | 0.0 | 3.2 | 0.00 | 0.00 | 0.00 | 78 | 1010.9 |
| 20260507023026 | 15 | 192 | 0.0 | 3.2 | 0.00 | 0.00 | 0.00 | 78 | 1010.8 |
| 20260507021526 | 15 | 189 | 0.0 | 3.2 | 0.00 | 0.00 | 0.00 | 76 | 1010.7 |
| 20260507020027 | 15 | 182 | 0.0 | 3.2 | 0.00 | 0.00 | 0.00 | 74 | 1010.7 |
| 20260507014522 | 16 | 182 | 0.0 | 3.2 | 0.00 | 0.00 | 0.00 | 73 | 1010.9 |
| 20260507013026 | 16 | 206 | 0.0 | 3.2 | 0.00 | 0.00 | 0.00 | 73 | 1011.0 |
| 20260507011540 | 16 | 257 | 0.0 | 3.2 | 0.00 | 0.00 | 0.00 | 73 | 1010.8 |
| 20260507010016 | 16 | 153 | 0.0 | 4.8 | 0.00 | 0.00 | 0.00 | 73 | 1010.8 |
| 20260507004519 | 15 | 210 | 0.0 | 3.2 | 0.00 | 0.00 | 0.00 | 73 | 1010.8 |
| 20260507003024 | 15 | 144 | 1.6 | 6.4 | 0.00 | 0.00 | 0.00 | 74 | 1010.6 |
| 20260507001600 | 15 | 225 | 0.0 | 3.2 | 0.00 | 0.00 | 0.00 | 74 | 1010.5 |
| 20260507000016 | 15 | 225 | 0.0 | 6.4 | 0.00 | 0.00 | 0.00 | 75 | 1010.3 |
| 20260506234518 | 14 | 132 | 0.0 | 3.2 | 0.00 | 0.00 | 0.00 | 76 | 1010.2 |
| 20260506233025 | 14 | 360 | 0.0 | 3.2 | 0.00 | 0.00 | 0.00 | 77 | 1010.1 |
| 20260506231525 | 15 | 360 | 0.0 | 3.2 | 0.00 | 0.00 | 0.00 | 75 | 1010.3 |
| 20260506230043 | 15 | 360 | 0.0 | 1.6 | 0.00 | 0.00 | 0.00 | 74 | 1010.3 |
| 20260506224517 | 14 | 262 | 1.6 | 4.8 | 0.00 | 0.00 | 0.00 | 75 | 1010.3 |
| 20260506223029 | 13 | 257 | 1.6 | 3.2 | 0.00 | 0.00 | 0.00 | 81 | 1010.4 |
| 20260506221523 | 12 | 119 | 0.0 | 3.2 | 0.00 | 0.00 | 0.00 | 83 | 1010.3 |
| 20260506220033 | 12 | 277 | 0.0 | 3.2 | 0.00 | 0.00 | 0.00 | 81 | 1010.1 |
| 20260506214513 | 12 | 277 | 0.0 | 3.2 | 0.00 | 0.00 | 0.00 | 82 | 1010.1 |
| 20260506213018 | 12 | 277 | 0.0 | 3.2 | 0.00 | 0.00 | 0.00 | 82 | 1010.1 |
| 20260506211523 | 12 | 277 | 0.0 | 3.2 | 0.00 | 0.00 | 0.00 | 82 | 1010.3 |
| 20260506210046 | 12 | 277 | 0.0 | 3.2 | 0.00 | 0.00 | 0.00 | 81 | 1010.3 |
| 20260506204528 | 12 | 277 | 0.0 | 3.2 | 0.00 | 0.00 | 0.00 | 81 | 1010.2 |
| 20260506203016 | 13 | 277 | 0.0 | 3.2 | 0.00 | 0.00 | 0.00 | 80 | 1010.2 |
| 20260506201523 | 13 | 277 | 0.0 | 3.2 | 0.00 | 0.00 | 0.00 | 78 | 1010.2 |
| 20260506200025 | 13 | 210 | 0.0 | 3.2 | 0.00 | 0.00 | 0.00 | 77 | 1010.0 |
| 20260506194528 | 14 | 203 | 0.0 | 3.2 | 0.00 | 0.00 | 0.00 | 75 | 1010.0 |
| 20260506193035 | 15 | 200 | 0.0 | 3.2 | 0.00 | 0.00 | 0.00 | 74 | 1010.0 |
| 20260506191518 | 15 | 152 | 0.0 | 3.2 | 0.00 | 0.00 | 0.00 | 71 | 1009.8 |
| 20260506190030 | 16 | 152 | 0.0 | 3.2 | 0.00 | 0.00 | 0.00 | 68 | 1009.7 |
| 20260506184536 | 17 | 152 | 0.0 | 0.0 | 0.00 | 0.00 | 0.00 | 64 | 1009.5 |
| 20260506183028 | 18 | 152 | 0.0 | 0.0 | 0.00 | 0.00 | 0.00 | 59 | 1009.4 |
| 20260506181538 | 20 | 152 | 0.0 | 3.2 | 0.00 | 0.00 | 0.00 | 56 | 1009.4 |
| 20260506180025 | 21 | 152 | 0.0 | 3.2 | 0.00 | 0.00 | 0.00 | 54 | 1009.3 |
| 20260506174524 | 22 | 152 | 0.0 | 3.2 | 0.00 | 0.00 | 0.00 | 50 | 1009.2 |
| 20260506173028 | 22 | 172 | 0.0 | 3.2 | 0.00 | 0.00 | 0.00 | 46 | 1009.1 |
| 20260506171532 | 23 | 167 | 1.6 | 6.4 | 0.00 | 0.00 | 0.00 | 44 | 1009.1 |
| 20260506170027 | 23 | 236 | 1.6 | 8.0 | 0.00 | 0.00 | 0.00 | 44 | 1009.2 |
| 20260506164541 | 23 | 188 | 1.6 | 6.4 | 0.00 | 0.00 | 0.00 | 43 | 1009.2 |
| 20260506163028 | 23 | 192 | 3.2 | 9.7 | 0.00 | 0.00 | 0.00 | 42 | 1009.4 |
| 20260506161528 | 24 | 174 | 4.8 | 12.9 | 0.00 | 0.00 | 0.00 | 41 | 1009.4 |
| 20260506160019 | 24 | 253 | 3.2 | 11.3 | 0.00 | 0.00 | 0.00 | 41 | 1009.5 |
| 20260506154524 | 24 | 182 | 6.4 | 16.1 | 0.00 | 0.00 | 0.00 | 40 | 1009.6 |
| 20260506153007 | 25 | 174 | 6.4 | 14.5 | 0.00 | 0.00 | 0.00 | 39 | 1009.7 |
| 20260506151514 | 25 | 214 | 4.8 | 14.5 | 0.00 | 0.00 | 0.00 | 39 | 1009.9 |
| 20260506150014 | 25 | 277 | 9.7 | 17.7 | 0.00 | 0.00 | 0.00 | 36 | 1009.8 |
| 20260506144526 | 25 | 241 | 9.7 | 27.4 | 0.00 | 0.00 | 0.00 | 37 | 1009.9 |
| 20260506143025 | 25 | 248 | 8.0 | 30.6 | 0.00 | 0.00 | 0.00 | 38 | 1009.9 |
| 20260506141521 | 25 | 185 | 6.4 | 24.1 | 0.00 | 0.00 | 0.00 | 36 | 1010.0 |
| 20260506140015 | 25 | 255 | 11.3 | 19.3 | 0.00 | 0.00 | 0.00 | 37 | 1010.2 |
| 20260506134520 | 25 | 264 | 12.9 | 24.1 | 0.00 | 0.00 | 0.00 | 39 | 1010.2 |
| 20260506133025 | 25 | 188 | 6.4 | 20.9 | 0.00 | 0.00 | 0.00 | 39 | 1010.3 |
| 20260506131525 | 24 | 144 | 9.7 | 20.9 | 0.00 | 0.00 | 0.00 | 39 | 1010.3 |
| 20260506130014 | 24 | 178 | 6.4 | 29.0 | 0.00 | 0.00 | 0.00 | 39 | 1010.5 |
| 20260506124519 | 24 | 168 | 6.4 | 19.3 | 0.00 | 0.00 | 0.00 | 39 | 1010.5 |
| 20260506123023 | 24 | 187 | 6.4 | 19.3 | 0.00 | 0.00 | 0.00 | 40 | 1010.6 |
| 20260506121524 | 23 | 263 | 8.0 | 24.1 | 0.00 | 0.00 | 0.00 | 41 | 1010.8 |
| 20260506120015 | 24 | 179 | 9.7 | 24.1 | 0.00 | 0.00 | 0.00 | 40 | 1010.9 |
| 20260506114519 | 24 | 236 | 8.0 | 22.5 | 0.00 | 0.00 | 0.00 | 42 | 1010.7 |
| 20260506113019 | 24 | 181 | 6.4 | 24.1 | 0.00 | 0.00 | 0.00 | 42 | 1010.8 |
| 20260506111524 | 24 | 160 | 8.0 | 32.2 | 0.00 | 0.00 | 0.00 | 42 | 1010.8 |
| 20260506110030 | 23 | 149 | 6.4 | 19.3 | 0.00 | 0.00 | 0.00 | 43 | 1010.9 |
| 20260506104526 | 23 | 232 | 9.7 | 24.1 | 0.00 | 0.00 | 0.00 | 45 | 1011.0 |
| 20260506103035 | 23 | 141 | 6.4 | 19.3 | 0.00 | 0.00 | 0.00 | 45 | 1011.1 |
| 20260506101521 | 23 | 201 | 6.4 | 17.7 | 0.00 | 0.00 | 0.00 | 46 | 1011.1 |
| 20260506100027 | 23 | 155 | 8.0 | 22.5 | 0.00 | 0.00 | 0.00 | 46 | 1011.2 |
| 20260506094528 | 22 | 242 | 8.0 | 20.9 | 0.00 | 0.00 | 0.00 | 48 | 1011.3 |
| 20260506093021 | 22 | 265 | 8.0 | 20.9 | 0.00 | 0.00 | 0.00 | 50 | 1011.3 |
| 20260506091520 | 22 | 257 | 4.8 | 22.5 | 0.00 | 0.00 | 0.00 | 51 | 1011.4 |
| 20260506090023 | 21 | 190 | 8.0 | 20.9 | 0.00 | 0.00 | 0.00 | 52 | 1011.5 |
| 20260506084606 | 21 | 190 | 8.0 | 24.1 | 0.00 | 0.00 | 0.00 | 52 | 1011.5 |
| 20260506083029 | 21 | 191 | 4.8 | 17.7 | 0.00 | 0.00 | 0.00 | 54 | 1011.4 |
| 20260506081523 | 21 | 165 | 4.8 | 16.1 | 0.00 | 0.00 | 0.00 | 55 | 1011.4 |
| 20260506073028 | 19 | 252 | 6.4 | 16.1 | 0.00 | 0.00 | 0.00 | 58 | 1011.7 |
| 20260506071517 | 18 | 217 | 4.8 | 14.5 | 0.00 | 0.00 | 0.00 | 60 | 1011.7 |